TimeCDT,TemperatureF,Dew PointF,Humidity,Sea Level PressureIn,VisibilityMPH,Wind Direction,Wind SpeedMPH,Gust SpeedMPH,PrecipitationIn,Events,Conditions,WindDirDegrees,DateUTC
12:15 AM,42.8,41.0,93,29.84,10.0,Calm,Calm,-,N/A,,Clear,0,2013-10-07 05:15:00
12:34 AM,42.8,39.2,87,29.85,10.0,NW,3.5,-,N/A,,Clear,320,2013-10-07 05:34:00
12:55 AM,42.8,39.2,87,29.86,10.0,North,3.5,-,N/A,,Clear,10,2013-10-07 05:55:00
1:15 AM,42.8,41.0,93,29.86,10.0,North,5.8,-,N/A,,Clear,360,2013-10-07 06:15:00
1:34 AM,39.2,37.4,93,29.86,10.0,North,6.9,-,N/A,,Clear,350,2013-10-07 06:34:00
1:55 AM,42.8,39.2,87,29.86,10.0,NNW,5.8,-,N/A,,Clear,340,2013-10-07 06:55:00
2:14 AM,41.0,39.2,93,29.87,10.0,NNW,3.5,-,N/A,,Clear,340,2013-10-07 07:14:00
2:34 AM,39.2,37.4,93,29.87,10.0,North,4.6,-,N/A,,Clear,360,2013-10-07 07:34:00
2:55 AM,41.0,39.2,93,29.88,10.0,North,3.5,-,N/A,,Clear,10,2013-10-07 07:55:00
3:14 AM,41.0,37.4,87,29.88,10.0,Calm,Calm,-,N/A,,Clear,0,2013-10-07 08:14:00
3:34 AM,39.2,37.4,93,29.88,10.0,Calm,Calm,-,N/A,,Clear,0,2013-10-07 08:34:00
3:55 AM,37.4,35.6,93,29.89,10.0,Calm,Calm,-,N/A,,Clear,0,2013-10-07 08:55:00
4:14 AM,37.4,35.6,93,29.89,10.0,NNW,3.5,-,N/A,,Clear,340,2013-10-07 09:14:00
4:35 AM,37.4,35.6,93,29.89,10.0,North,3.5,-,N/A,,Clear,360,2013-10-07 09:35:00
4:55 AM,39.2,37.4,93,29.90,10.0,Calm,Calm,-,N/A,,Clear,0,2013-10-07 09:55:00
5:14 AM,37.4,35.6,93,29.90,10.0,NW,3.5,-,N/A,,Clear,320,2013-10-07 10:14:00
5:35 AM,37.4,35.6,93,29.91,10.0,NW,5.8,-,N/A,,Clear,320,2013-10-07 10:35:00
5:54 AM,35.6,33.8,93,29.91,10.0,NW,3.5,-,N/A,,Clear,310,2013-10-07 10:54:00
6:14 AM,35.6,33.8,93,29.92,7.0,NW,5.8,-,N/A,,Clear,320,2013-10-07 11:14:00
6:35 AM,35.6,33.8,93,29.92,10.0,NNW,3.5,-,N/A,,Clear,330,2013-10-07 11:35:00
6:54 AM,35.6,33.8,93,29.93,10.0,Calm,Calm,-,N/A,,Clear,0,2013-10-07 11:54:00
7:15 AM,35.6,33.8,93,29.93,10.0,NW,3.5,-,N/A,,Clear,320,2013-10-07 12:15:00
7:35 AM,35.6,33.8,93,29.94,10.0,Calm,Calm,-,N/A,,Clear,0,2013-10-07 12:35:00
7:54 AM,35.6,35.6,100,29.95,10.0,Calm,Calm,-,N/A,,Clear,0,2013-10-07 12:54:00
8:15 AM,35.6,33.8,93,29.95,10.0,Calm,Calm,-,N/A,,Clear,0,2013-10-07 13:15:00
8:34 AM,37.4,35.6,93,29.95,10.0,Calm,Calm,-,N/A,,Clear,0,2013-10-07 13:34:00
8:54 AM,39.2,37.4,93,29.95,10.0,Calm,Calm,-,N/A,,Clear,0,2013-10-07 13:54:00
9:15 AM,42.8,39.2,87,29.95,10.0,NNE,3.5,-,N/A,,Clear,20,2013-10-07 14:15:00
9:34 AM,44.6,39.2,81,29.96,10.0,NNE,3.5,-,N/A,,Clear,20,2013-10-07 14:34:00
9:54 AM,44.6,41.0,87,29.96,10.0,North,3.5,-,N/A,,Clear,10,2013-10-07 14:54:00
10:15 AM,46.4,42.8,87,29.97,10.0,Calm,Calm,-,N/A,,Clear,0,2013-10-07 15:15:00
10:33 AM,48.2,42.8,82,29.97,10.0,Calm,Calm,-,N/A,,Clear,0,2013-10-07 15:33:00
10:54 AM,50.0,42.8,76,29.97,10.0,Calm,Calm,-,N/A,,Clear,0,2013-10-07 15:54:00
11:14 AM,51.8,44.6,76,29.97,10.0,Calm,Calm,-,N/A,,Clear,0,2013-10-07 16:14:00
11:34 AM,51.8,44.6,76,29.97,10.0,Calm,Calm,-,N/A,,Clear,0,2013-10-07 16:34:00
11:54 AM,53.6,44.6,72,29.97,10.0,Calm,Calm,-,N/A,,Clear,0,2013-10-07 16:54:00
12:14 PM,55.4,44.6,67,29.97,7.0,Calm,Calm,-,N/A,,Clear,0,2013-10-07 17:14:00
12:34 PM,55.4,42.8,63,29.96,10.0,Calm,Calm,-,N/A,,Clear,0,2013-10-07 17:34:00
12:55 PM,57.2,42.8,59,29.96,10.0,Calm,Calm,-,N/A,,Clear,0,2013-10-07 17:55:00
1:14 PM,57.2,42.8,59,29.95,10.0,West,3.5,-,N/A,,Clear,260,2013-10-07 18:14:00
1:35 PM,57.2,39.2,51,29.95,10.0,Calm,Calm,-,N/A,,Clear,0,2013-10-07 18:35:00
1:55 PM,59.0,39.2,48,29.94,10.0,SSW,4.6,-,N/A,,Clear,200,2013-10-07 18:55:00
2:14 PM,59.0,42.8,55,29.93,10.0,SW,5.8,-,N/A,,Clear,220,2013-10-07 19:14:00
2:35 PM,60.8,39.2,45,29.92,10.0,SW,5.8,-,N/A,,Clear,220,2013-10-07 19:35:00
2:54 PM,60.8,42.8,52,29.92,10.0,SSW,5.8,-,N/A,,Clear,210,2013-10-07 19:54:00
3:15 PM,60.8,42.8,52,29.91,10.0,SW,6.9,-,N/A,,Clear,230,2013-10-07 20:15:00
3:34 PM,60.8,41.0,48,29.91,10.0,WSW,6.9,-,N/A,,Clear,250,2013-10-07 20:34:00
3:55 PM,60.8,42.8,52,29.91,10.0,SSW,4.6,-,N/A,,Clear,210,2013-10-07 20:55:00
4:15 PM,62.6,42.8,48,29.90,10.0,SSW,8.1,-,N/A,,Clear,210,2013-10-07 21:15:00
4:34 PM,62.6,41.0,45,29.90,10.0,SW,6.9,-,N/A,,Clear,220,2013-10-07 21:34:00
4:55 PM,62.6,41.0,45,29.89,10.0,SW,5.8,-,N/A,,Clear,220,2013-10-07 21:55:00
5:13 PM,62.6,39.2,42,29.89,10.0,SW,4.6,-,N/A,,Clear,220,2013-10-07 22:13:00
5:34 PM,62.6,41.0,45,29.88,10.0,Calm,Calm,-,N/A,,Clear,170,2013-10-07 22:34:00
5:55 PM,60.8,41.0,48,29.88,10.0,South,5.8,-,N/A,,Clear,190,2013-10-07 22:55:00
6:14 PM,60.8,42.8,52,29.87,10.0,South,5.8,-,N/A,,Clear,180,2013-10-07 23:14:00
6:35 PM,57.2,42.8,59,29.86,10.0,South,5.8,-,N/A,,Clear,170,2013-10-07 23:35:00
6:55 PM,53.6,44.6,72,29.86,10.0,SSE,5.8,-,N/A,,Clear,160,2013-10-07 23:55:00
7:14 PM,51.8,44.6,76,29.86,10.0,SSE,8.1,-,N/A,,Clear,150,2013-10-08 00:14:00
7:35 PM,50.0,42.8,76,29.85,10.0,SSE,9.2,-,N/A,,Clear,150,2013-10-08 00:35:00
7:54 PM,50.0,42.8,76,29.85,10.0,SE,8.1,-,N/A,,Clear,140,2013-10-08 00:54:00
8:15 PM,48.2,42.8,82,29.85,10.0,SE,9.2,-,N/A,,Clear,140,2013-10-08 01:15:00
8:34 PM,48.2,42.8,82,29.85,10.0,SSE,8.1,-,N/A,,Clear,150,2013-10-08 01:34:00
8:54 PM,48.2,42.8,82,29.84,10.0,SSE,8.1,-,N/A,,Clear,150,2013-10-08 01:54:00
9:15 PM,46.4,42.8,87,29.84,10.0,SSE,10.4,-,N/A,,Clear,160,2013-10-08 02:15:00
9:34 PM,48.2,41.0,76,29.83,10.0,SSE,10.4,-,N/A,,Clear,150,2013-10-08 02:34:00
9:55 PM,46.4,41.0,81,29.82,10.0,SSE,10.4,-,N/A,,Clear,150,2013-10-08 02:55:00
10:15 PM,46.4,41.0,81,29.82,10.0,SSE,10.4,-,N/A,,Clear,150,2013-10-08 03:15:00
10:34 PM,48.2,41.0,76,29.81,10.0,SSE,9.2,-,N/A,,Clear,150,2013-10-08 03:34:00
10:55 PM,48.2,41.0,76,29.81,10.0,SSE,10.4,-,N/A,,Clear,150,2013-10-08 03:55:00
11:15 PM,48.2,41.0,76,29.80,10.0,SSE,10.4,-,N/A,,Clear,150,2013-10-08 04:15:00
11:34 PM,48.2,41.0,76,29.79,10.0,SSE,10.4,-,N/A,,Clear,160,2013-10-08 04:34:00
11:55 PM,51.8,39.2,62,29.78,10.0,South,15.0,-,N/A,,Clear,170,2013-10-08 04:55:00